�������l�o���
Date,Time,MP-1(��Sv/h),MP-2(��Sv/h),MP-3(��Sv/h),MP-4(��Sv/h),MP-5(��Sv/h),MP-6(��Sv/h),MP-7(��Sv/h),MP-8(��Sv/h),����,����(m/s),���J
2020/03/05,00:00,0.673,0.955,0.646,1.173,0.837,0.393,0.684,0.653,�k,3.7,�L
2020/03/05,00:10,0.673,0.954,0.647,1.174,0.835,0.394,0.685,0.653,�k�k��,3.4,�L
2020/03/05,00:20,0.673,0.956,0.648,1.175,0.838,0.394,0.684,0.653,�k�k��,2.6,�L
2020/03/05,00:30,0.674,0.956,0.648,1.176,0.840,0.393,0.684,0.652,�k�k��,3.0,�L
2020/03/05,00:40,0.675,0.954,0.648,1.177,0.839,0.394,0.685,0.653,�k�k��,3.0,�L
2020/03/05,00:50,0.675,0.958,0.650,1.176,0.837,0.393,0.685,0.652,�k,3.9,�L
2020/03/05,01:00,0.673,0.957,0.647,1.178,0.838,0.395,0.686,0.654,�k,3.2,�L
2020/03/05,01:10,0.674,0.956,0.648,1.177,0.839,0.394,0.687,0.654,�k,3.1,�L
2020/03/05,01:20,0.677,0.956,0.649,1.176,0.838,0.394,0.685,0.654,�k,3.2,�L
2020/03/05,01:30,0.675,0.956,0.648,1.177,0.840,0.396,0.687,0.655,�k,3.6,�L
2020/03/05,01:40,0.673,0.958,0.649,1.180,0.839,0.393,0.685,0.655,�k,3.8,�L
2020/03/05,01:50,0.674,0.958,0.649,1.176,0.840,0.395,0.685,0.653,�k,4.0,�L
2020/03/05,02:00,0.675,0.960,0.650,1.177,0.840,0.395,0.687,0.654,�k,4.0,�L
2020/03/05,02:10,0.676,0.959,0.650,1.179,0.841,0.395,0.685,0.653,�k,4.7,�L
2020/03/05,02:20,0.677,0.959,0.649,1.179,0.842,0.395,0.687,0.653,�k,4.6,�L
2020/03/05,02:30,0.676,0.956,0.650,1.181,0.840,0.396,0.685,0.652,�k�k��,4.9,�L
2020/03/05,02:40,0.675,0.959,0.650,1.179,0.838,0.395,0.687,0.652,�k,5.4,�L
2020/03/05,02:50,0.675,0.955,0.651,1.181,0.840,0.394,0.688,0.655,�k,4.9,�L
2020/03/05,03:00,0.678,0.957,0.651,1.181,0.841,0.397,0.685,0.653,�k,6.1,�L
2020/03/05,03:10,0.677,0.958,0.651,1.181,0.839,0.396,0.687,0.653,�k,6.2,�L
2020/03/05,03:20,0.679,0.958,0.651,1.180,0.839,0.398,0.688,0.654,�k�k��,7.0,�L
2020/03/05,03:30,0.676,0.955,0.653,1.178,0.842,0.400,0.685,0.653,�k�k��,6.8,�L
2020/03/05,03:40,0.677,0.956,0.650,1.180,0.839,0.400,0.686,0.654,�k�k��,7.8,�L
2020/03/05,03:50,0.677,0.956,0.651,1.179,0.840,0.399,0.687,0.656,�k,7.4,�L
2020/03/05,04:00,0.676,0.955,0.649,1.178,0.840,0.398,0.686,0.654,�k�k��,8.7,�L
2020/03/05,04:10,0.676,0.954,0.651,1.179,0.838,0.398,0.686,0.654,�k�k��,6.5,�L
2020/03/05,04:20,0.675,0.956,0.650,1.179,0.840,0.397,0.686,0.653,�k�k��,6.4,��
2020/03/05,04:30,0.676,0.953,0.651,1.177,0.838,0.397,0.687,0.654,�k�k��,5.4,��
2020/03/05,04:40,0.674,0.955,0.648,1.181,0.839,0.396,0.687,0.655,�k�k��,5.9,��
2020/03/05,04:50,0.675,0.955,0.648,1.176,0.839,0.395,0.686,0.655,�k�k��,6.3,��
2020/03/05,05:00,0.674,0.954,0.646,1.179,0.839,0.396,0.686,0.655,�k�k��,6.9,��
2020/03/05,05:10,0.675,0.956,0.649,1.179,0.838,0.394,0.687,0.654,�k�k��,7.6,��
2020/03/05,05:20,0.677,0.955,0.648,1.175,0.840,0.395,0.687,0.653,�k�k��,7.2,��
2020/03/05,05:30,0.677,0.953,0.647,1.180,0.838,0.395,0.686,0.654,�k��,7.1,��
2020/03/05,05:40,0.675,0.956,0.649,1.179,0.838,0.394,0.686,0.654,�k�k��,6.9,��
2020/03/05,05:50,0.674,0.955,0.648,1.178,0.839,0.395,0.686,0.653,�k�k��,5.0,��
2020/03/05,06:00,0.674,0.955,0.648,1.177,0.838,0.395,0.686,0.653,�k�k��,4.8,��
2020/03/05,06:10,0.676,0.957,0.647,1.180,0.838,0.394,0.687,0.653,�k�k��,8.6,��
2020/03/05,06:20,0.673,0.955,0.647,1.177,0.837,0.395,0.688,0.653,�k��,8.4,�L
2020/03/05,06:30,0.675,0.954,0.647,1.180,0.838,0.394,0.686,0.653,���k��,11.0,��
2020/03/05,06:40,0.676,0.955,0.648,1.179,0.837,0.394,0.688,0.652,���k��,10.2,��
2020/03/05,06:50,0.675,0.956,0.649,1.176,0.839,0.394,0.687,0.654,���k��,10.3,��
2020/03/05,07:00,0.675,0.955,0.648,1.178,0.840,0.395,0.686,0.655,�k��,7.3,��
2020/03/05,07:10,0.674,0.956,0.649,1.180,0.840,0.394,0.685,0.655,���k��,5.9,��
2020/03/05,07:20,0.675,0.956,0.649,1.179,0.840,0.395,0.686,0.655,���k��,6.8,��
2020/03/05,07:30,0.677,0.956,0.648,1.181,0.840,0.394,0.688,0.655,���k��,7.7,��
2020/03/05,07:40,0.677,0.956,0.650,1.181,0.841,0.395,0.687,0.655,�k��,7.0,��
2020/03/05,07:50,0.677,0.956,0.650,1.182,0.841,0.396,0.687,0.655,�k��,7.7,��
2020/03/05,08:00,0.676,0.956,0.647,1.182,0.841,0.395,0.688,0.656,�k��,6.7,��
2020/03/05,08:10,0.674,0.954,0.650,1.181,0.841,0.395,0.688,0.656,�k�k��,8.4,��
2020/03/05,08:20,0.678,0.956,0.649,1.184,0.838,0.395,0.688,0.655,�k,5.1,��
2020/03/05,08:30,0.677,0.954,0.648,1.182,0.842,0.395,0.689,0.655,�k�k��,6.5,��
2020/03/05,08:40,0.679,0.957,0.650,1.182,0.843,0.396,0.688,0.654,�k��,5.2,��
2020/03/05,08:50,0.678,0.956,0.650,1.184,0.842,0.395,0.688,0.654,�k�k��,5.1,��
2020/03/05,09:00,0.678,0.960,0.649,1.184,0.841,0.395,0.689,0.655,�k�k��,2.8,��
2020/03/05,09:10,0.679,0.957,0.650,1.182,0.843,0.395,0.689,0.655,�k��,3.8,��
2020/03/05,09:20,0.678,0.954,0.650,1.183,0.840,0.394,0.689,0.654,�k��,8.9,��
2020/03/05,09:30,0.679,0.955,0.652,1.185,0.843,0.395,0.688,0.655,�k��,5.6,��
2020/03/05,09:40,0.679,0.956,0.649,1.184,0.843,0.395,0.687,0.656,�k��,5.1,��
2020/03/05,09:50,0.678,0.955,0.649,1.188,0.843,0.396,0.688,0.656,���k��,5.0,��
2020/03/05,10:00,0.679,0.956,0.651,1.185,0.842,0.395,0.688,0.658,��,2.6,��
2020/03/05,10:10,0.679,0.955,0.650,1.185,0.844,0.394,0.689,0.656,���k��,7.0,��
2020/03/05,10:20,0.680,0.958,0.652,1.187,0.845,0.396,0.688,0.656,���k��,7.3,��
2020/03/05,10:30,0.683,0.959,0.652,1.182,0.845,0.397,0.689,0.656,��,13.8,��
2020/03/05,10:40,0.683,0.959,0.652,1.185,0.844,0.398,0.688,0.658,��,13.9,��
2020/03/05,10:50,0.681,0.962,0.652,1.185,0.846,0.397,0.688,0.658,��,14.1,��
2020/03/05,11:00,0.680,0.962,0.652,1.188,0.846,0.395,0.687,0.656,��,11.9,��
2020/03/05,11:10,0.681,0.962,0.653,1.187,0.844,0.397,0.689,0.656,��,12.4,��
2020/03/05,11:20,0.684,0.962,0.654,1.189,0.847,0.400,0.691,0.656,���k��,13.8,��
2020/03/05,11:30,0.684,0.962,0.654,1.188,0.848,0.398,0.690,0.655,���k��,17.9,��
2020/03/05,11:40,0.682,0.963,0.655,1.189,0.849,0.397,0.690,0.655,��,14.7,��
2020/03/05,11:50,0.685,0.965,0.654,1.190,0.849,0.399,0.689,0.658,��,19.9,��
2020/03/05,12:00,0.684,0.965,0.656,1.192,0.849,0.398,0.692,0.657,��,13.0,��
2020/03/05,12:10,0.683,0.968,0.656,1.190,0.849,0.397,0.689,0.658,��,19.0,�L
2020/03/05,12:20,0.683,0.967,0.657,1.193,0.849,0.398,0.689,0.654,��,18.8,��
2020/03/05,12:30,0.682,0.969,0.655,1.193,0.851,0.399,0.691,0.656,��,15.2,��
2020/03/05,12:40,0.683,0.968,0.658,1.193,0.850,0.397,0.691,0.656,��,11.7,��
2020/03/05,12:50,0.682,0.966,0.658,1.191,0.851,0.397,0.690,0.656,��,12.4,��
2020/03/05,13:00,0.682,0.970,0.657,1.193,0.848,0.398,0.690,0.657,��,14.7,�L
2020/03/05,13:10,0.683,0.970,0.657,1.193,0.851,0.398,0.691,0.657,���쐼,10.9,��
2020/03/05,13:20,0.682,0.971,0.657,1.192,0.851,0.398,0.689,0.656,��,11.0,��
2020/03/05,13:30,0.682,0.969,0.657,1.192,0.853,0.399,0.690,0.658,���k��,7.7,�L
2020/03/05,13:40,0.684,0.969,0.657,1.193,0.851,0.400,0.691,0.657,���k��,9.0,�L
2020/03/05,13:50,0.683,0.969,0.658,1.195,0.850,0.399,0.689,0.656,��,9.6,��
2020/03/05,14:00,0.685,0.969,0.657,1.196,0.853,0.399,0.690,0.656,��,10.2,��
2020/03/05,14:10,0.683,0.971,0.658,1.196,0.852,0.398,0.690,0.656,��,9.5,��
2020/03/05,14:20,0.682,0.969,0.658,1.194,0.853,0.397,0.691,0.655,���k��,5.9,��
2020/03/05,14:30,0.683,0.968,0.656,1.197,0.853,0.398,0.690,0.656,�k,4.0,��
2020/03/05,14:40,0.682,0.970,0.657,1.194,0.852,0.399,0.691,0.656,�k,3.0,��
2020/03/05,14:50,0.685,0.970,0.658,1.197,0.851,0.398,0.689,0.655,���k��,5.7,��
2020/03/05,15:00,0.686,0.970,0.657,1.195,0.855,0.398,0.690,0.655,���k��,6.1,��
2020/03/05,15:10,0.685,0.974,0.659,1.195,0.852,0.398,0.689,0.657,��,8.0,��
2020/03/05,15:20,0.684,0.974,0.658,1.194,0.854,0.399,0.690,0.658,��,6.3,��
2020/03/05,15:30,0.686,0.975,0.660,1.195,0.856,0.399,0.690,0.657,��,7.0,��
2020/03/05,15:40,0.685,0.975,0.658,1.195,0.855,0.399,0.691,0.658,��,6.8,��
2020/03/05,15:50,0.686,0.975,0.658,1.196,0.854,0.399,0.690,0.657,��,5.2,��
2020/03/05,16:00,0.685,0.975,0.660,1.194,0.854,0.399,0.689,0.659,��,9.2,��
2020/03/05,16:10,0.684,0.976,0.661,1.195,0.856,0.400,0.691,0.659,���k��,10.8,��
2020/03/05,16:20,0.685,0.977,0.658,1.196,0.854,0.399,0.691,0.659,���k��,8.5,��
2020/03/05,16:30,0.684,0.975,0.659,1.196,0.855,0.399,0.689,0.660,���k��,12.7,��
2020/03/05,16:40,0.685,0.976,0.658,1.196,0.856,0.398,0.692,0.658,���k��,10.2,��
2020/03/05,16:50,0.686,0.975,0.658,1.196,0.855,0.398,0.689,0.659,�k��,9.4,��
2020/03/05,17:00,0.684,0.976,0.658,1.196,0.855,0.398,0.693,0.658,���k��,7.9,��
2020/03/05,17:10,0.685,0.979,0.658,1.196,0.857,0.399,0.690,0.659,���k��,6.9,��
2020/03/05,17:20,0.685,0.979,0.661,1.198,0.858,0.400,0.690,0.658,��,5.7,�L
2020/03/05,17:30,0.684,0.978,0.660,1.197,0.856,0.398,0.693,0.658,���쐼,6.3,�L
2020/03/05,17:40,0.684,0.978,0.661,1.199,0.858,0.400,0.691,0.659,��,6.9,�L
2020/03/05,17:50,0.686,0.978,0.661,1.197,0.858,0.399,0.691,0.659,��,8.0,��
2020/03/05,18:00,0.686,0.979,0.660,1.196,0.856,0.400,0.692,0.658,���쐼,8.2,�L
2020/03/05,18:10,0.687,0.977,0.660,1.198,0.857,0.399,0.690,0.659,��,7.5,��
2020/03/05,18:20,0.685,0.981,0.659,1.197,0.859,0.398,0.692,0.659,��,6.8,�L
2020/03/05,18:30,0.684,0.980,0.660,1.197,0.856,0.399,0.692,0.659,��,4.9,�L
2020/03/05,18:40,0.686,0.979,0.659,1.199,0.858,0.398,0.692,0.659,��,6.4,�L
2020/03/05,18:50,0.684,0.978,0.658,1.196,0.858,0.397,0.694,0.656,���k��,6.8,�L
2020/03/05,19:00,0.684,0.980,0.661,1.197,0.857,0.399,0.692,0.658,��,5.8,��
2020/03/05,19:10,0.686,0.977,0.658,1.197,0.861,0.399,0.694,0.658,���k��,7.4,�L
2020/03/05,19:20,0.685,0.977,0.661,1.198,0.857,0.399,0.693,0.660,��,6.3,�L
2020/03/05,19:30,0.683,0.979,0.661,1.198,0.856,0.399,0.692,0.659,���k��,5.5,�L
2020/03/05,19:40,0.682,0.979,0.662,1.198,0.859,0.399,0.691,0.659,�k��,4.6,�L
2020/03/05,19:50,0.684,0.977,0.660,1.197,0.859,0.398,0.693,0.659,�k��,4.2,�L
2020/03/05,20:00,0.685,0.977,0.660,1.199,0.859,0.397,0.692,0.658,���k��,4.2,�L
2020/03/05,20:10,0.682,0.980,0.659,1.196,0.859,0.399,0.693,0.659,���k��,4.8,�L
2020/03/05,20:20,0.683,0.979,0.661,1.198,0.859,0.398,0.693,0.658,���k��,5.1,�L
2020/03/05,20:30,0.682,0.980,0.660,1.196,0.858,0.398,0.690,0.659,��,5.7,�L
2020/03/05,20:40,0.682,0.979,0.660,1.198,0.857,0.400,0.691,0.658,��,6.0,��
2020/03/05,20:50,0.683,0.979,0.662,1.199,0.857,0.396,0.693,0.659,���쐼,6.5,��
2020/03/05,21:00,0.684,0.977,0.659,1.197,0.858,0.398,0.692,0.658,���쐼,4.8,��
2020/03/05,21:10,0.683,0.980,0.658,1.198,0.857,0.397,0.693,0.658,��,5.6,��
2020/03/05,21:20,0.683,0.979,0.660,1.198,0.858,0.399,0.693,0.658,���쐼,3.8,��
2020/03/05,21:30,0.683,0.979,0.660,1.197,0.858,0.398,0.692,0.659,��,2.9,��
2020/03/05,21:40,0.684,0.977,0.660,1.195,0.858,0.400,0.694,0.660,�k��,2.6,��
2020/03/05,21:50,0.683,0.977,0.657,1.197,0.857,0.399,0.691,0.657,���k��,3.2,��
2020/03/05,22:00,0.680,0.979,0.660,1.198,0.855,0.397,0.692,0.658,��,2.6,��
2020/03/05,22:10,0.681,0.976,0.660,1.196,0.858,0.399,0.692,0.659,��,5.1,��
2020/03/05,22:20,0.683,0.977,0.660,1.195,0.859,0.399,0.693,0.659,��,5.0,��
2020/03/05,22:30,0.684,0.976,0.661,1.197,0.856,0.398,0.691,0.657,���k��,5.0,��
2020/03/05,22:40,0.683,0.979,0.660,1.197,0.855,0.398,0.693,0.658,���k��,5.2,��
2020/03/05,22:50,0.682,0.979,0.658,1.199,0.857,0.398,0.692,0.659,���k��,6.6,��
2020/03/05,23:00,0.684,0.980,0.660,1.197,0.856,0.398,0.690,0.657,���k��,7.4,��
2020/03/05,23:10,0.683,0.976,0.658,1.198,0.857,0.399,0.693,0.657,���k��,6.5,��
2020/03/05,23:20,0.684,0.979,0.658,1.197,0.857,0.398,0.692,0.659,��,6.8,��
2020/03/05,23:30,0.683,0.977,0.662,1.197,0.857,0.397,0.691,0.657,��,7.0,��
2020/03/05,23:40,0.685,0.977,0.661,1.198,0.858,0.397,0.692,0.657,��,6.9,��
2020/03/05,23:50,0.684,0.977,0.660,1.200,0.858,0.396,0.693,0.658,��,7.5,��
